User: anonymous
Location: Unspecified
(0.0000°N, 0.0000°E)
Time: 16:05:13
(UTC+02:00)
Language:

ASC 2 Rocket - Orbit

View from above orbital plane
View from above orbital plane
View from above satellite
View from above satellite

Ground track
Ground track

The orbit data is extracted from the following two-line orbital elements,

1 21228U 91028B   14244.75758265  .00000434  00000-0  11661-3 0  3707
2 21228 024.0034 047.3739 1145576 223.0670 272.9215 12.52824775 69806
Epoch (UTC): 01 September 2014 18:10:55
Eccentricity: 0.1145576
inclination: 24.0034°
perigee height: 555 km
apogee height: 2350 km
right ascension of ascending node: 47.3739°
argument of perigee: 223.0670°
revolutions per day: 12.52824775
mean anomaly at epoch: 272.9215°
orbit number at epoch: 6980

The dashed part of the orbit path shows where the satellite is in the earth's shadow,  

DLR